Location: Dammartin
(48.9032°N, 1.6195°E)
Time: 15:25:43
(UTC+00:00)

CUBEBUG 2 - Visible Passes

Search period start: 04 March 2024 00:00
Search period end: 14 March 2024 00:00
Orbit: 574 x 672 km, 97.8° (Epoch: 03 March)

Date Brightness Start Highest point End Pass type
(mag) Time Alt. Az. Time Alt. Az. Time Alt. Az.
04 Mar ? 02:55:04 10° N 02:55:30 12° N 02:55:30 12° N visible
05 Mar ? 03:13:28 10° N 03:13:57 12° N 03:13:57 12° N visible
06 Mar ? 01:55:03 10° NNE 01:55:11 11° NNE 01:55:11 11° NNE visible
06 Mar ? 03:32:01 10° NNW 03:32:24 12° NNW 03:32:24 12° NNW visible
07 Mar ? 02:13:08 10° NNE 02:13:37 13° NNE 02:13:37 13° NNE visible
07 Mar ? 03:50:47 10° NNW 03:50:51 10° NNW 03:50:51 10° NNW visible
08 Mar ? 02:31:18 10° N 02:32:03 15° N 02:32:03 15° N visible
09 Mar ? 02:49:33 10° N 02:50:28 15° N 02:50:28 15° N visible
10 Mar ? 01:31:39 10° NNE 01:31:39 10° NNE 01:31:39 10° NNE visible
10 Mar ? 03:07:53 10° N 03:08:53 15° NNW 03:08:53 15° NNW visible
11 Mar ? 01:49:33 10° NNE 01:50:03 13° NNE 01:50:03 13° NNE visible
11 Mar ? 03:26:21 10° NNW 03:27:17 14° NNW 03:27:17 14° NNW visible
12 Mar ? 02:07:34 10° NNE 02:08:27 16° NNE 02:08:27 16° NNE visible
12 Mar ? 03:45:01 10° NNW 03:45:40 12° NNW 03:45:40 12° NNW visible
13 Mar ? 02:25:40 10° N 02:26:50 18° N 02:26:50 18° N visible
